Preview of NWS' New Version of Forecast
This preview is not operational and should not be used for support decisions.

Regional Weather Roundup (RWR)

Issued by National Weather Service (NWS)

                            
000
ASUS45 KABQ 192301
RWRNM 
NEW MEXICO REGIONAL WEATHER ROUNDUP
NATIONAL WEATHER SERVICE ALBUQUERQUE NM
500 PM MDT WED JUN 19 2019

NOTE: "FAIR" MEANS FEW OR NO CLOUDS BELOW 12,000 FEET AGL WITH NO
       SIGNIFICANT WEATHER OR OBSTRUCTIONS TO VISION.

      THIS PRODUCT IS RELEASED AS TWO VERSIONS.  ONE VERSION NEAR
      THE TOP OF THE HOUR CONTAINING PRELIMINARY DATA FROM ALBUQUERQUE
      AND OTHER STATIONS.  A FINAL VERSION WITH ADDITIONAL DATA IS 
      ISSUED ABOUT 10 MINUTES AFTER THE HOUR.
 
NMZ501-503-504-510>518-200000-
NORTHWEST PLATEAU/NORTHCENTRAL MOUNTAINS
  
CITY           SKY/WX    TMP DP  RH WIND       PRES   REMARKS
FARMINGTON     FAIR      87  29  12 NW14G26   29.98F                  
LOS ALAMOS       N/A     79  27  14 W8G23     30.13S                  
SANTA FE       FAIR      84  26  12 NW14G31   30.04F                  
TAOS           PTSUNNY   78  34  20 W16G29    30.09F                  
ANGEL FIRE       N/A     70  33  26 W16G25    30.17F                  

$$
NMZ402-403-502-505>509-200000-
WESTCENTRAL MOUNTAINS/SOUTHWEST MOUNTAINS
  
CITY           SKY/WX    TMP DP  RH WIND       PRES   REMARKS
GALLUP         FAIR      85  28  12 W20G31    30.09F                  
GRANTS         FAIR      81  27  13 NW17      30.10F                  
SILVER CITY    FAIR      88  17   7 W21G28    30.06F                  

$$
NMZ407-409-411-412-200000-
SOUTHERN DESERTS
  
CITY           SKY/WX    TMP DP  RH WIND       PRES   REMARKS
DEMING         FAIR      93  14   5 W15G24    29.97F                  
LAS CRUCES     FAIR      94  17   6 W14G24    29.98F                  
ALAMOGORDO     FAIR      93  23   8 W9        29.94F                  
T OR C         FAIR      93  19   7 S8        29.94F                  

$$
NMZ519>523-200000-
CENTRAL VALLEYS/CENTRAL HIGHLANDS
  
CITY           SKY/WX    TMP DP  RH WIND       PRES   REMARKS
ALBUQUERQUE    FAIR      89  32  13 N14G22    29.98F                  
DOUBLE EAGLE     N/A     88  30  12 W7G20     30.02F                  
MORIARTY ARPT  FAIR      88  28  11 W25       30.05F                  
CLINES CORNERS FAIR      79  30  16 W16G39    30.09F                  
BELEN          FAIR      91  28  10 W8G17     29.97F                  
SOCORRO        FAIR      93  26   9 NW14      29.94F                  

$$
NMZ524>526-539-540-200000-
SOUTHCENTRAL MOUNTAINS
  
CITY           SKY/WX    TMP DP  RH WIND       PRES   REMARKS
RUIDOSO        FAIR      82  25  12 NW12G25   30.13F                  

$$
NMZ527>531-200000-
NORTHEAST HIGHLANDS/NORTHEAST PLAINS
  
CITY           SKY/WX    TMP DP  RH WIND       PRES   REMARKS
LAS VEGAS      FAIR      82  30  15 NW18G24   30.04F                  
RATON          FAIR      79  36  21 S12       29.97S                  
CLAYTON        FAIR      83  43  24 VRB6      29.90F                  

$$
NMZ532>537-200000-
EASTCENTRAL PLAINS
  
CITY           SKY/WX    TMP DP  RH WIND       PRES   REMARKS
SANTA ROSA     FAIR      92  33  12 W16G25    29.88F                  
TUCUMCARI      FAIR      91  46  21 E10G20    29.82F                  
CANNON AFB     NOT AVBL                                               
CLOVIS AIRPORT FAIR      89  45  21 S6        29.88F                  

$$
NMZ028-029-538-200000-
SOUTHEAST PLAINS
  
CITY           SKY/WX    TMP DP  RH WIND       PRES   REMARKS
ROSWELL        FAIR     101  28   7 SW12      29.83F                  
ARTESIA        FAIR      99  36  11 NW13G21   29.84S                  
CARLSBAD       FAIR     100  28   8 W13G23    29.81F                  
HOBBS          SUNNY     99  30   9 W14       29.86F                  


$$